Home   Weather   Swindon   Past weeks

Flag for United Kingdom Past Weather in Swindon, England, United Kingdom — Yesterday and Last 2 Weeks

Now
59 °F

Broken clouds.


Feels Like: 57 °F
Forecast: 49 / 60 °F
Wind: 9 mph from Southwest

Location: Brize Norton

Current Time: Sep 29, 2016 at 9:33:29 AM

Latest Report: Sep 29, 2016 at 8:50 AM


Visibility: N/A

Pressure: 29.92 "Hg

Humidity: 88%

Dew Point: 55 °F

Location of SwindonLocation

Past Weather in Swindon — Graph

°F

Swindon Temperature Yesterday

Maximum temperature yesterday: 70 °F (at 2:50 PM)
Minimum temperature yesterday: 54 °F (at 12:50 AM)
Average temperature yesterday: 61 °F

High & Low Weather Summary for the Past Weeks

 TemperatureHumidityPressure
High79 °F (Sep 14, 12:50 PM)100% (Sep 15, 12:50 AM)30.27 "Hg (Sep 15, 12:50 AM)
Low43 °F (Sep 23, 5:50 AM)43% (Sep 23, 12:50 PM)29.74 "Hg (Sep 25, 1:50 AM)
Average60 °F81%30.06 "Hg
* Reported Sep 14 7:50 AM — Sep 29 7:50 AM, Swindon, Weather by CustomWeather, © 2016

Note: Actual official high and low records may vary slightly from our data, if they occured in-between our weather recording intervals... More about our weather records

Advertising

Swindon Weather History for the Previous 24 Hours

Scroll right to see more
 ConditionsComfort  
Time TempWeatherWind HumidityBarometerVisibility
7:50 AM
Thu, Sep 29
61 °FLight rain. Partly sunny.10 mph88%29.92 "HgN/A
6:50 AM61 °FPassing clouds.8 mph94%29.92 "Hg2 mi
5:50 AM63 °FPassing clouds.10 mph88%29.92 "HgN/A
4:50 AM63 °FPassing clouds.10 mph88%29.95 "HgN/A
3:50 AM64 °FPartly cloudy.13 mph83%29.95 "HgN/A
2:50 AM64 °FPassing clouds.13 mph83%29.98 "HgN/A
1:50 AM64 °FPartly cloudy.12 mph83%30.01 "HgN/A
12:50 AM64 °FPartly cloudy.12 mph83%30.04 "HgN/A
11:50 PM
Wed, Sep 28
63 °FPassing clouds.12 mph94%30.07 "HgN/A
10:50 PM63 °FPartly cloudy.12 mph94%30.09 "HgN/A
9:50 PM63 °FPartly cloudy.14 mph94%30.09 "HgN/A
7:50 PM64 °FPassing clouds.13 mph88%30.12 "HgN/A
6:50 PM66 °FMostly cloudy.7 mph88%30.12 "HgN/A
5:50 PM66 °FPartly sunny.8 mph83%30.15 "HgN/A
4:50 PM66 °FPartly sunny.8 mph83%30.18 "HgN/A
3:50 PM68 °FBroken clouds.12 mph78%30.18 "HgN/A
2:50 PM70 °FPartly sunny.12 mph73%30.21 "HgN/A
1:50 PM68 °FBroken clouds.10 mph73%30.21 "HgN/A
12:50 PM66 °FBroken clouds.9 mph73%30.24 "HgN/A
11:50 AM64 °FPartly sunny.9 mph78%30.24 "HgN/A
10:50 AM61 °FPartly sunny.7 mph83%30.24 "HgN/A
9:50 AM61 °FScattered clouds.6 mph83%30.24 "HgN/A
Weather by CustomWeather, © 2016

See weather overviewHow to use our weather pages